Simultaneous Nadir Overpasses (SNOs) Predictions

Prediction of SNOs between METOP-A and NPP Satellite Orbit:

Table of predicted SNOs for the next 14.0 days since TLE Epoch: 3/20/2021
Index Date (METOP-A) Time (METOP-A) Lat,Lon (METOP-A) SZA (METOP-A ) Date (NPP) Time (NPP) Lat,Lon (NPP) SZA (NPP ) Distance(km) Time Diff (sec)
1 03/29/2021 11:33:24 -76.93, 170.18 106.08 03/29/2021 11:32:17 -76.92, 166.96 105.81 81.10 67
2 03/29/2021 12:24:09 76.71, -23.33 73.76 03/29/2021 12:22:58 76.72, -24.92 73.92 40.54 71
3 03/29/2021 13:14:53 -76.59, 143.59 106.34 03/29/2021 13:13:40 -76.62, 142.78 106.22 21.12 73
4 03/29/2021 14:05:35 76.50, -49.41 73.60 03/29/2021 14:04:23 76.50, -49.46 73.62 1.44 72
5 03/29/2021 14:56:17 -76.48, 117.85 106.44 03/29/2021 14:55:07 -76.49, 117.88 106.41 1.45 70
6 03/29/2021 15:46:57 76.48, -74.82 73.55 03/29/2021 15:45:53 76.51, -74.86 73.60 2.78 64
7 03/29/2021 16:37:38 -76.51, 92.60 106.45 03/29/2021 16:36:37 -76.50, 92.49 106.43 3.05 61
8 03/29/2021 17:28:19 76.46,-100.23 73.51 03/29/2021 17:27:22 76.47,-100.09 73.53 3.85 57
9 03/29/2021 18:19:00 -76.49, 67.19 106.49 03/29/2021 18:18:07 -76.50, 67.09 106.45 2.90 53
10 03/29/2021 19:09:40 76.49,-125.48 73.50 03/29/2021 19:08:52 76.47,-125.48 73.50 1.79 48
11 03/29/2021 20:00:22 -76.47, 41.77 106.53 03/29/2021 19:59:36 -76.46, 41.87 106.52 2.43 46
12 03/29/2021 20:51:02 76.47,-150.89 73.46 03/29/2021 20:50:22 76.48,-150.88 73.48 1.18 40
13 03/29/2021 21:41:43 -76.49, 16.52 106.54 03/29/2021 21:41:06 -76.47, 16.47 106.55 3.07 37
14 03/29/2021 22:32:23 76.49,-176.14 73.45 03/29/2021 22:31:52 76.48,-176.27 73.46 3.49 31
15 03/29/2021 23:23:05 -76.47, -8.89 106.58 03/29/2021 23:22:36 -76.48, -8.92 106.57 0.95 29
16 03/30/2021 00:13:45 76.47, 158.44 73.41 03/30/2021 00:13:22 76.49, 158.33 73.44 3.30 23
17 03/30/2021 01:04:27 -76.45, -34.30 106.62 03/30/2021 01:04:06 -76.48, -34.32 106.59 2.97 21
18 03/30/2021 01:55:07 76.45, 133.03 73.37 03/30/2021 01:54:51 76.45, 133.11 73.37 2.00 16
19 03/30/2021 02:45:48 -76.48, -59.55 106.63 03/30/2021 02:45:35 -76.44, -59.55 106.66 4.32 13
20 03/30/2021 03:36:28 76.48, 107.78 73.36 03/30/2021 03:36:21 76.46, 107.71 73.34 3.28 7
21 03/30/2021 04:27:10 -76.46, -84.96 106.67 03/30/2021 04:27:05 -76.45, -84.94 106.68 1.56 5
22 03/30/2021 05:17:50 76.46, 82.37 73.32 03/30/2021 05:17:51 76.46, 82.31 73.32 1.40 1
23 03/30/2021 06:08:32 -76.44,-110.37 106.71 03/30/2021 06:08:35 -76.45,-110.34 106.71 1.63 3
24 03/30/2021 06:59:12 76.44, 56.96 73.28 03/30/2021 06:59:21 76.47, 56.92 73.30 3.16 9
25 03/30/2021 07:49:53 -76.47,-135.62 106.72 03/30/2021 07:50:05 -76.46,-135.73 106.73 2.98 12
26 03/30/2021 08:40:34 76.42, 31.54 73.24 03/30/2021 08:40:50 76.43, 31.69 73.23 3.92 16
27 03/30/2021 09:31:15 -76.45,-161.04 106.76 03/30/2021 09:31:35 -76.46,-161.13 106.75 3.08 20
28 03/30/2021 10:21:55 76.45, 6.29 73.23 03/30/2021 10:22:20 76.43, 6.30 73.21 1.39 25
29 03/30/2021 11:12:37 -76.43, 173.55 106.80 03/30/2021 11:13:04 -76.42, 173.64 106.82 2.35 27
30 03/30/2021 12:03:17 76.43, -19.12 73.19 03/30/2021 12:03:50 76.44, -19.10 73.19 1.56 33
31 03/30/2021 12:53:58 -76.45, 148.30 106.82 03/30/2021 12:54:34 -76.43, 148.25 106.84 2.86 36
32 03/30/2021 13:44:38 76.45, -44.37 73.18 03/30/2021 13:45:20 76.44, -44.49 73.17 3.37 42
33 03/30/2021 14:35:20 -76.43, 122.89 106.86 03/30/2021 14:36:04 -76.44, 122.85 106.86 1.05 44
34 03/30/2021 15:26:00 76.43, -69.78 73.13 03/30/2021 15:26:49 76.41, -69.72 73.09 3.27 49
35 03/30/2021 16:16:42 -76.41, 97.48 106.90 03/30/2021 16:17:34 -76.44, 97.46 106.89 3.25 52
36 03/30/2021 17:07:22 76.41, -95.19 73.09 03/30/2021 17:08:19 76.41, -95.12 73.07 1.93 57
37 03/30/2021 17:58:03 -76.44, 72.23 106.91 03/30/2021 17:59:03 -76.40, 72.23 106.96 4.05 60
38 03/30/2021 18:48:43 76.44,-120.44 73.08 03/30/2021 18:49:49 76.42,-120.51 73.05 2.95 66
39 03/30/2021 19:39:25 -76.42, 46.82 106.95 03/30/2021 19:40:33 -76.41, 46.83 106.98 1.28 68
40 03/30/2021 20:30:05 76.42,-145.86 73.04 03/30/2021 20:31:19 76.42,-145.91 73.03 1.52 74
41 03/30/2021 21:20:49 -76.31, 21.09 107.05 03/30/2021 21:22:02 -76.37, 21.60 107.06 15.16 73
42 03/30/2021 22:11:34 76.07,-172.37 72.79 03/30/2021 22:12:42 76.11,-170.17 72.62 58.90 68
43 03/30/2021 23:02:18 -75.96, -5.40 107.30 03/30/2021 23:03:25 -76.06, -2.67 107.47 74.16 67



Historial Predications of SNOs between METOP-A and NPP
